sat.trackr.live / text

‹ back to catalog

STARLINK-35777

NORAD 66975 · 2025-288S

PAYLOAD ACTIVE UNKNOWN

§ Identity

Operator
Country
US
Launch date
2025-12-08
Launch site
AFETR
Launch vehicle
Mass (kg)
RCS (m²)

Purposes: comms

External: N2YO · Heavens-Above · Gunter

§ Orbital elements

Epoch: 2026-05-24T20:55:13.087200Z

Period
94.26 min
Inclination
43.0015°
Eccentricity
0.0001308
Mean motion
15.27611525 rev/d
Perigee alt
482.1 km
Apogee alt
483.9 km
Semi-major
6,861.1 km
B*
5.3045e-4
RAAN
313.6362°
Arg perigee
268.4997°
Mean anomaly
91.5705°
Rev number
2,693

§ Raw data

STARLINK-357771 66975U 25288S   26144.87167925  .00014377  00000+0  53045-3 0  99912 66975  43.0015 313.6362 0001308 268.4997  91.5705 15.27611525 26931

JSON: /api/v1/satellites/66975 · /tle

For live sub-satellite position, see the globe view (requires WebGL).

§ Visibility from observer

Set your observer location to see the next 7 days of passes ≥ 10°. The values pass through the URL so the page stays shareable.

No JS? Fill the form by hand. The geolocation button needs JavaScript.